Location: Garden Park
(34.0906°N, 117.2695°W)
Time: 23:54:09
(UTC+00:00)

Hubble Space Telescope - Pass Details

Date: 20 August 2024
Orbit: 505 x 509 km, 28.5° (Epoch: 16 September)

Event Time Altitude Azimuth Distance (km) Brightness Sun altitude
Exits shadow 11:56:07 24° 202° (SSW) 1,062 1.8 -16.0°
Maximum altitude 11:56:26 25° 193° (SSW) 1,054 1.9 -15.9°
Drops below altitude 10° 11:59:41 10° 138° (SE) 1,708 3.5 -15.3°
Sets 12:02:12 0° 124° (SE) 2,593 4.7 -14.8°
